Location: Gouvernes
(48.8601°N, 2.6907°E)
Time: 02:48:13
(UTC+00:00)

Cosmos 1697 Rocket - Pass Details

Date: 16 October 2021
Orbit: 834 x 842 km, 71.0° (Epoch: 30 November)

Event Time Altitude Azimuth Distance (km) Brightness Sun altitude
Rises 17:34:25 0° 192° (SSW) 3,384 6.1 -6.8°
Reaches altitude 10° 17:36:53 10° 188° (S) 2,453 5.3 -7.2°
Maximum altitude 17:42:22 56° 111° (ESE) 1,002 2.8 -8.1°
Drops below altitude 10° 17:47:52 10° 35° (NE) 2,467 4.8 -9.0°
Sets 17:50:21 0° 32° (NNE) 3,404 5.5 -9.5°
